Location: Sternwarte ZA, Rosenfeld-Brittheim
(48.2889°N, 8.6789°E)
Time: 20:07:33
(UTC+02:00)

ISS - Pass Details

Date: 14 July 2019
Orbit: 409 x 418 km, 51.6° (Epoch: 20 July)

Event Time Altitude Azimuth Distance (km) Brightness Sun altitude
Exits shadow 01:36:22 59° 277° (W) 483 -3.5 -19.9°
Maximum altitude 01:36:52 75° 340° (NNW) 431 -3.7 -19.9°
Drops below altitude 10° 01:40:12 10° 67° (ENE) 1,482 -0.7 -19.9°
Sets 01:42:18 0° 69° (ENE) 2,344 0.4 -19.9°
